Time,TemperatureF,DewpointF,PressureIn,WindDirection,WindDirectionDegrees,WindSpeedMPH,WindSpeedGustMPH,Humidity,HourlyPrecipIn,Conditions,Clouds,dailyrainin,SoftwareType,DateUTC
2013-01-04 00:03:00,40.5,3.6,30.62,North,11,4.9,5.4,21,0.00,,CLR,0.00,VWS V14.01,2013-01-04 07:03:00,
2013-01-04 00:08:00,40.5,3.6,30.62,North,11,5.4,5.4,21,0.00,,CLR,0.00,VWS V14.01,2013-01-04 07:08:00,
2013-01-04 00:14:00,40.3,3.5,30.47,North,8,5.8,6.3,21,0.00,,CLR,0.00,VWS V14.01,2013-01-04 07:14:00,
2013-01-04 00:20:00,40.3,3.5,30.47,NNE,16,5.4,5.4,21,0.00,,CLR,0.00,VWS V14.01,2013-01-04 07:20:00,
2013-01-04 00:25:00,40.1,3.3,30.47,NNE,17,5.4,5.4,21,0.00,,CLR,0.00,VWS V14.01,2013-01-04 07:25:00,
2013-01-04 00:31:00,40.1,3.3,30.47,NNE,26,4.9,5.4,21,0.00,,CLR,0.00,VWS V14.01,2013-01-04 07:31:00,
2013-01-04 00:37:00,40.3,3.5,30.47,NNE,18,3.1,4.0,21,0.00,,CLR,0.00,VWS V14.01,2013-01-04 07:37:00,
2013-01-04 00:42:00,40.5,3.6,30.47,NNE,19,2.2,2.7,21,0.00,,CLR,0.00,VWS V14.01,2013-01-04 07:42:00,
2013-01-04 00:47:00,40.8,3.9,30.62,NNE,19,0.0,0.0,21,0.00,,CLR,0.00,VWS V14.01,2013-01-04 07:47:00,
2013-01-04 00:53:00,41.0,4.1,30.62,NNE,19,0.0,0.0,21,0.00,,CLR,0.00,VWS V14.01,2013-01-04 07:53:00,
2013-01-04 00:59:00,40.8,3.9,30.15,NNE,16,4.0,4.0,21,0.00,,CLR,0.00,VWS V14.01,2013-01-04 07:59:00,
2013-01-04 01:04:00,40.5,3.6,30.15,North,11,5.4,5.8,21,0.00,,CLR,0.00,VWS V14.01,2013-01-04 08:04:00,
2013-01-04 01:09:00,39.9,3.2,30.24,North,10,5.8,5.8,21,0.00,,CLR,0.00,VWS V14.01,2013-01-04 08:09:00,
2013-01-04 01:15:00,39.7,3.0,30.24,North,11,5.4,5.4,21,0.00,,CLR,0.00,VWS V14.01,2013-01-04 08:15:00,
2013-01-04 01:21:00,38.8,5.2,30.24,North,11,5.4,5.8,24,0.00,,CLR,0.00,VWS V14.01,2013-01-04 08:21:00,
2013-01-04 01:27:00,38.7,5.0,30.59,North,10,5.8,5.8,24,0.00,,CLR,0.00,VWS V14.01,2013-01-04 08:27:00,
2013-01-04 01:32:00,38.7,5.0,30.59,North,10,6.3,6.3,24,0.00,,CLR,0.00,VWS V14.01,2013-01-04 08:32:00,
2013-01-04 01:38:00,38.5,4.8,30.59,North,8,5.8,6.7,24,0.00,,CLR,0.00,VWS V14.01,2013-01-04 08:38:00,
2013-01-04 01:44:00,38.3,4.7,30.59,North,7,6.7,6.7,24,0.00,,CLR,0.00,VWS V14.01,2013-01-04 08:44:00,
2013-01-04 01:49:00,38.3,4.7,30.59,North,6,6.3,6.3,24,0.00,,CLR,0.00,VWS V14.01,2013-01-04 08:49:00,
2013-01-04 01:55:00,38.1,4.5,30.89,North,7,4.9,5.4,24,0.00,,CLR,0.00,VWS V14.01,2013-01-04 08:55:00,
2013-01-04 02:00:00,38.1,4.5,30.89,NNE,21,4.9,5.4,24,0.00,,CLR,0.00,VWS V14.01,2013-01-04 09:00:00,
2013-01-04 02:07:00,37.9,4.4,30.89,North,6,6.3,6.3,24,0.00,,CLR,0.00,VWS V14.01,2013-01-04 09:07:00,
2013-01-04 02:12:00,37.9,4.4,30.86,North,6,5.4,5.8,24,0.00,,CLR,0.00,VWS V14.01,2013-01-04 09:12:00,
2013-01-04 02:17:00,37.9,4.4,30.86,North,6,5.4,5.8,24,0.00,,CLR,0.00,VWS V14.01,2013-01-04 09:17:00,
2013-01-04 02:23:00,37.9,4.4,30.92,North,6,4.9,4.9,24,0.00,,CLR,0.00,VWS V14.01,2013-01-04 09:23:00,
2013-01-04 02:28:00,37.9,4.4,30.92,North,10,4.5,4.5,24,0.00,,CLR,0.00,VWS V14.01,2013-01-04 09:28:00,
2013-01-04 02:34:00,37.9,4.4,30.92,North,7,4.9,5.4,24,0.00,,CLR,0.00,VWS V14.01,2013-01-04 09:34:00,
2013-01-04 02:40:00,37.9,4.4,30.92,North,4,5.4,5.4,24,0.00,,CLR,0.00,VWS V14.01,2013-01-04 09:40:00,
2013-01-04 02:45:00,37.6,4.1,30.92,North,3,5.4,5.4,24,0.00,,CLR,0.00,VWS V14.01,2013-01-04 09:45:00,
2013-01-04 02:50:00,37.6,4.1,30.92,North,357,5.8,5.8,24,0.00,,CLR,0.00,VWS V14.01,2013-01-04 09:50:00,
2013-01-04 02:55:00,37.4,3.9,30.92,North,10,5.4,5.4,24,0.00,,CLR,0.00,VWS V14.01,2013-01-04 09:55:00,
2013-01-04 03:01:00,37.4,3.9,30.98,North,6,5.8,6.3,24,0.00,,CLR,0.00,VWS V14.01,2013-01-04 10:01:00,
2013-01-04 03:06:00,37.2,3.8,30.98,North,3,4.9,5.8,24,0.00,,CLR,0.00,VWS V14.01,2013-01-04 10:06:00,
2013-01-04 03:12:00,37.2,3.8,30.98,North,3,6.3,6.3,24,0.00,,CLR,0.00,VWS V14.01,2013-01-04 10:12:00,
2013-01-04 03:17:00,37.0,3.6,30.98,North,6,5.4,5.8,24,0.00,,CLR,0.00,VWS V14.01,2013-01-04 10:17:00,
2013-01-04 03:24:00,37.2,3.8,30.98,North,353,4.0,4.0,24,0.00,,CLR,0.00,VWS V14.01,2013-01-04 10:24:00,
2013-01-04 03:29:00,37.2,3.8,31.01,North,2,4.5,5.8,24,0.00,,CLR,0.00,VWS V14.01,2013-01-04 10:29:00,
2013-01-04 03:34:00,37.0,3.6,31.01,North,357,3.1,4.0,24,0.00,,CLR,0.00,VWS V14.01,2013-01-04 10:34:00,
2013-01-04 03:39:00,37.0,3.6,31.01,North,357,4.9,4.9,24,0.00,,CLR,0.00,VWS V14.01,2013-01-04 10:39:00,
2013-01-04 03:44:00,36.7,3.3,31.01,NNE,15,5.4,5.4,24,0.00,,CLR,0.00,VWS V14.01,2013-01-04 10:44:00,
2013-01-04 03:49:00,36.7,3.3,31.01,North,3,6.3,6.3,24,0.00,,CLR,0.00,VWS V14.01,2013-01-04 10:49:00,
2013-01-04 03:55:00,36.7,3.3,31.01,North,1,6.3,6.3,24,0.00,,CLR,0.00,VWS V14.01,2013-01-04 10:55:00,
2013-01-04 04:00:00,36.7,3.3,31.01,North,8,5.4,5.8,24,0.00,,CLR,0.00,VWS V14.01,2013-01-04 11:00:00,
2013-01-04 04:06:00,36.7,3.3,31.01,North,2,2.7,4.9,24,0.00,,CLR,0.00,VWS V14.01,2013-01-04 11:06:00,
2013-01-04 04:12:00,36.5,3.2,31.01,North,1,4.0,4.5,24,0.00,,CLR,0.00,VWS V14.01,2013-01-04 11:12:00,
2013-01-04 04:17:00,36.3,3.0,31.01,North,2,5.4,5.4,24,0.00,,CLR,0.00,VWS V14.01,2013-01-04 11:17:00,
2013-01-04 04:23:00,36.3,3.0,31.01,NNE,14,4.9,5.4,24,0.00,,CLR,0.00,VWS V14.01,2013-01-04 11:23:00,
2013-01-04 04:29:00,36.5,3.2,31.01,NNE,14,5.4,5.4,24,0.00,,CLR,0.00,VWS V14.01,2013-01-04 11:29:00,
2013-01-04 04:34:00,36.7,3.3,31.01,NNE,13,5.4,5.4,24,0.00,,CLR,0.00,VWS V14.01,2013-01-04 11:34:00,
2013-01-04 04:40:00,36.7,3.3,31.01,NNE,12,5.4,5.4,24,0.00,,CLR,0.00,VWS V14.01,2013-01-04 11:40:00,
2013-01-04 04:45:00,36.3,3.0,31.01,North,8,5.8,6.3,24,0.00,,CLR,0.00,VWS V14.01,2013-01-04 11:45:00,
2013-01-04 04:51:00,36.3,3.0,31.01,North,7,6.3,6.3,24,0.00,,CLR,0.00,VWS V14.01,2013-01-04 11:51:00,
2013-01-04 04:57:00,36.1,5.4,31.01,North,7,5.4,5.8,27,0.00,,CLR,0.00,VWS V14.01,2013-01-04 11:57:00,
2013-01-04 05:02:00,36.1,5.4,31.01,North,9,5.8,6.3,27,0.00,,CLR,0.00,VWS V14.01,2013-01-04 12:02:00,
2013-01-04 05:07:00,36.1,5.4,31.01,North,8,5.8,6.3,27,0.00,,CLR,0.00,VWS V14.01,2013-01-04 12:07:00,
2013-01-04 05:12:00,35.8,5.1,31.01,North,2,5.4,6.3,27,0.00,,CLR,0.00,VWS V14.01,2013-01-04 12:12:00,
2013-01-04 05:18:00,35.8,5.1,31.01,North,0,4.0,4.5,27,0.00,,CLR,0.00,VWS V14.01,2013-01-04 12:18:00,
2013-01-04 05:23:00,35.6,4.9,31.01,North,0,4.0,4.0,27,0.00,,CLR,0.00,VWS V14.01,2013-01-04 12:23:00,
2013-01-04 05:30:00,35.4,4.8,31.01,North,6,3.6,3.6,27,0.00,,CLR,0.00,VWS V14.01,2013-01-04 12:30:00,
2013-01-04 05:35:00,35.4,4.8,31.01,North,6,0.0,3.1,27,0.00,,CLR,0.00,VWS V14.01,2013-01-04 12:35:00,
2013-01-04 05:40:00,35.2,4.6,31.01,North,6,0.0,0.0,27,0.00,,CLR,0.00,VWS V14.01,2013-01-04 12:40:00,
2013-01-04 05:45:00,35.1,4.5,31.01,North,6,0.0,0.0,27,0.00,,CLR,0.00,VWS V14.01,2013-01-04 12:45:00,
2013-01-04 05:50:00,34.9,4.3,29.23,North,6,0.0,0.0,27,0.00,,CLR,0.00,VWS V14.01,2013-01-04 12:50:00,
2013-01-04 05:56:00,34.9,4.3,29.23,North,6,4.9,4.9,27,0.00,,CLR,0.00,VWS V14.01,2013-01-04 12:56:00,
2013-01-04 06:01:00,34.7,4.2,29.23,North,3,5.4,5.4,27,0.00,,CLR,0.00,VWS V14.01,2013-01-04 13:01:00,
2013-01-04 06:07:00,34.5,4.0,29.23,North,7,4.9,5.4,27,0.00,,CLR,0.00,VWS V14.01,2013-01-04 13:07:00,
2013-01-04 06:12:00,34.5,6.3,29.23,North,10,5.4,5.4,30,0.00,,CLR,0.00,VWS V14.01,2013-01-04 13:12:00,
2013-01-04 06:18:00,34.5,6.3,29.23,North,4,6.3,6.3,30,0.00,,CLR,0.00,VWS V14.01,2013-01-04 13:18:00,
2013-01-04 06:23:00,34.5,6.3,29.23,North,4,5.8,5.8,30,0.00,,CLR,0.00,VWS V14.01,2013-01-04 13:23:00,
2013-01-04 06:28:00,34.5,6.3,29.23,North,10,6.3,6.3,30,0.00,,CLR,0.00,VWS V14.01,2013-01-04 13:28:00,
2013-01-04 06:33:00,34.5,6.3,29.23,North,6,6.3,6.3,30,0.00,,CLR,0.00,VWS V14.01,2013-01-04 13:33:00,
2013-01-04 06:38:00,34.5,6.3,29.23,North,6,5.8,5.8,30,0.00,,CLR,0.00,VWS V14.01,2013-01-04 13:38:00,
2013-01-04 06:43:00,34.5,6.3,29.23,North,6,5.4,6.3,30,0.00,,CLR,0.00,VWS V14.01,2013-01-04 13:43:00,
2013-01-04 06:49:00,34.3,6.1,29.23,North,6,6.3,6.3,30,0.00,,CLR,0.00,VWS V14.01,2013-01-04 13:49:00,
2013-01-04 06:54:00,34.3,6.1,29.23,North,0,4.9,5.4,30,0.00,,CLR,0.00,VWS V14.01,2013-01-04 13:54:00,
2013-01-04 07:00:00,34.5,6.3,29.23,NNE,12,5.4,5.4,30,0.00,,CLR,0.00,VWS V14.01,2013-01-04 14:00:00,
2013-01-04 07:05:00,34.5,6.3,29.23,North,4,5.8,6.3,30,0.00,,CLR,0.00,VWS V14.01,2013-01-04 14:05:00,
2013-01-04 07:11:00,34.5,6.3,29.23,North,4,0.0,4.0,30,0.00,,CLR,0.00,VWS V14.01,2013-01-04 14:11:00,
2013-01-04 07:17:00,34.5,6.3,29.23,North,4,0.0,0.0,30,0.00,,CLR,0.00,VWS V14.01,2013-01-04 14:17:00,
2013-01-04 07:22:00,34.5,6.3,29.23,North,4,0.0,0.0,30,0.00,,CLR,0.00,VWS V14.01,2013-01-04 14:22:00,
2013-01-04 07:27:00,34.3,6.1,29.23,North,4,0.0,0.0,30,0.00,,CLR,0.00,VWS V14.01,2013-01-04 14:27:00,
2013-01-04 07:32:00,34.2,6.0,29.23,North,4,0.0,0.0,30,0.00,,CLR,0.00,VWS V14.01,2013-01-04 14:32:00,
2013-01-04 07:38:00,34.0,5.8,29.23,North,353,4.5,4.5,30,0.00,,CLR,0.00,VWS V14.01,2013-01-04 14:38:00,
2013-01-04 07:43:00,33.6,5.5,29.23,North,357,3.6,3.6,30,0.00,,CLR,0.00,VWS V14.01,2013-01-04 14:43:00,
2013-01-04 07:49:00,33.4,5.3,31.01,North,5,5.4,5.4,30,0.00,,CLR,0.00,VWS V14.01,2013-01-04 14:49:00,
2013-01-04 07:54:00,33.4,5.3,31.01,North,3,4.9,5.8,30,0.00,,CLR,0.00,VWS V14.01,2013-01-04 14:54:00,
2013-01-04 08:00:00,33.4,5.3,31.01,NW,316,0.0,0.0,30,0.00,,CLR,0.00,VWS V14.01,2013-01-04 15:00:00,
2013-01-04 08:05:00,33.4,5.3,31.01,NW,316,0.0,0.0,30,0.00,,CLR,0.00,VWS V14.01,2013-01-04 15:05:00,
2013-01-04 08:10:00,33.6,5.5,31.01,NW,316,0.0,0.0,30,0.00,,CLR,0.00,VWS V14.01,2013-01-04 15:10:00,
2013-01-04 08:15:00,34.0,5.8,31.01,NNW,336,0.0,0.0,30,0.00,,CLR,0.00,VWS V14.01,2013-01-04 15:15:00,
2013-01-04 08:21:00,34.9,6.6,31.01,North,1,4.0,5.4,30,0.00,,CLR,0.00,VWS V14.01,2013-01-04 15:21:00,
2013-01-04 08:27:00,35.4,7.1,31.01,North,357,4.0,4.9,30,0.00,,CLR,0.00,VWS V14.01,2013-01-04 15:27:00,
2013-01-04 08:32:00,36.5,8.0,31.01,North,357,4.0,4.0,30,0.00,,CLR,0.00,VWS V14.01,2013-01-04 15:32:00,
2013-01-04 08:38:00,37.4,8.1,31.01,North,357,3.1,4.0,29,0.00,,CLR,0.00,VWS V14.01,2013-01-04 15:38:00,
2013-01-04 08:43:00,38.5,9.0,31.01,North,357,2.7,3.6,29,0.00,,CLR,0.00,VWS V14.01,2013-01-04 15:43:00,
2013-01-04 08:49:00,39.4,9.8,31.01,North,357,0.0,0.0,29,0.00,,CLR,0.00,VWS V14.01,2013-01-04 15:49:00,
2013-01-04 08:55:00,40.6,10.9,31.01,North,353,0.0,0.0,29,0.00,,CLR,0.00,VWS V14.01,2013-01-04 15:55:00,
2013-01-04 09:00:00,41.2,10.6,31.01,WNW,300,0.0,0.0,28,0.00,,CLR,0.00,VWS V14.01,2013-01-04 16:00:00,
2013-01-04 09:07:00,43.0,12.1,31.01,WNW,298,0.0,0.0,28,0.00,,CLR,0.00,VWS V14.01,2013-01-04 16:07:00,
2013-01-04 09:12:00,43.7,10.2,31.01,WNW,297,0.0,0.0,25,0.00,,CLR,0.00,VWS V14.01,2013-01-04 16:12:00,
2013-01-04 09:17:00,44.1,10.5,31.01,WNW,288,0.0,0.0,25,0.00,,CLR,0.00,VWS V14.01,2013-01-04 16:17:00,
2013-01-04 09:23:00,44.6,11.0,31.01,WNW,288,0.0,0.0,25,0.00,,CLR,0.00,VWS V14.01,2013-01-04 16:23:00,
2013-01-04 09:28:00,45.3,11.6,31.01,WNW,283,0.0,0.0,25,0.00,,CLR,0.00,VWS V14.01,2013-01-04 16:28:00,
2013-01-04 09:33:00,45.3,11.6,31.01,West,280,3.1,3.1,25,0.00,,CLR,0.00,VWS V14.01,2013-01-04 16:33:00,
2013-01-04 09:38:00,45.1,11.4,31.01,West,280,0.0,0.0,25,0.00,,CLR,0.00,VWS V14.01,2013-01-04 16:38:00,
2013-01-04 09:44:00,45.1,13.2,31.01,WNW,297,2.7,3.6,27,0.00,,CLR,0.00,VWS V14.01,2013-01-04 16:44:00,
2013-01-04 09:49:00,45.0,11.3,31.01,WNW,299,4.9,5.4,25,0.00,,CLR,0.00,VWS V14.01,2013-01-04 16:49:00,
2013-01-04 09:55:00,45.1,11.4,31.01,West,269,3.6,3.6,25,0.00,,CLR,0.00,VWS V14.01,2013-01-04 16:55:00,
2013-01-04 10:01:00,45.3,11.6,31.01,WSW,254,0.0,4.0,25,0.00,,CLR,0.00,VWS V14.01,2013-01-04 17:01:00,
2013-01-04 10:07:00,45.3,11.6,31.01,West,259,4.0,4.0,25,0.00,,CLR,0.00,VWS V14.01,2013-01-04 17:07:00,
2013-01-04 10:13:00,45.3,11.6,31.01,West,280,3.1,4.9,25,0.00,,CLR,0.00,VWS V14.01,2013-01-04 17:13:00,
2013-01-04 10:18:00,46.2,9.5,31.01,West,265,4.0,4.0,22,0.00,,CLR,0.00,VWS V14.01,2013-01-04 17:18:00,
2013-01-04 10:23:00,46.0,9.3,31.01,WSW,246,4.0,5.4,22,0.00,,CLR,0.00,VWS V14.01,2013-01-04 17:23:00,
2013-01-04 10:29:00,45.5,8.9,31.01,WSW,244,4.9,4.9,22,0.00,,CLR,0.00,VWS V14.01,2013-01-04 17:29:00,
2013-01-04 10:34:00,45.3,8.7,31.01,SW,221,3.1,4.0,22,0.00,,CLR,0.00,VWS V14.01,2013-01-04 17:34:00,
2013-01-04 10:40:00,45.5,8.9,31.01,SW,214,3.1,3.1,22,0.00,,CLR,0.00,VWS V14.01,2013-01-04 17:40:00,
2013-01-04 10:45:00,46.0,9.3,31.01,SW,223,2.7,2.7,22,0.00,,CLR,0.00,VWS V14.01,2013-01-04 17:45:00,
2013-01-04 10:51:00,46.4,9.6,31.01,WSW,239,3.1,3.6,22,0.00,,CLR,0.00,VWS V14.01,2013-01-04 17:51:00,
2013-01-04 10:56:00,46.8,9.9,31.01,SW,230,3.1,3.6,22,0.00,,CLR,0.00,VWS V14.01,2013-01-04 17:56:00,
2013-01-04 11:02:00,47.1,10.2,31.01,WSW,246,4.0,4.0,22,0.00,,CLR,0.00,VWS V14.01,2013-01-04 18:02:00,
2013-01-04 11:08:00,47.3,10.4,31.01,WSW,243,2.7,3.6,22,0.00,,CLR,0.00,VWS V14.01,2013-01-04 18:08:00,
2013-01-04 11:13:00,47.5,10.6,31.01,WSW,248,3.6,3.6,22,0.00,,CLR,0.00,VWS V14.01,2013-01-04 18:13:00,
2013-01-04 11:19:00,47.7,10.7,31.01,WSW,246,0.0,0.0,22,0.00,,CLR,0.00,VWS V14.01,2013-01-04 18:19:00,
2013-01-04 11:24:00,47.8,10.9,31.01,WSW,237,2.7,3.6,22,0.00,,CLR,0.00,VWS V14.01,2013-01-04 18:24:00,
2013-01-04 11:30:00,48.4,10.3,31.01,SW,214,4.0,4.0,21,0.00,,CLR,0.00,VWS V14.01,2013-01-04 18:30:00,
2013-01-04 11:36:00,48.7,10.6,31.01,SW,215,0.0,2.7,21,0.00,,CLR,0.00,VWS V14.01,2013-01-04 18:36:00,
2013-01-04 11:41:00,48.7,10.6,31.01,SW,223,3.1,3.1,21,0.00,,CLR,0.00,VWS V14.01,2013-01-04 18:41:00,
2013-01-04 11:46:00,49.5,11.2,31.01,SSW,200,4.0,4.0,21,0.00,,CLR,0.00,VWS V14.01,2013-01-04 18:46:00,
2013-01-04 11:51:00,50.0,11.6,31.01,SW,216,3.6,4.0,21,0.00,,CLR,0.00,VWS V14.01,2013-01-04 18:51:00,
2013-01-04 11:57:00,50.2,11.8,31.01,SW,235,2.7,2.7,21,0.00,,CLR,0.00,VWS V14.01,2013-01-04 18:57:00,
2013-01-04 12:02:00,50.2,11.8,31.01,South,185,5.8,5.8,21,0.00,,CLR,0.00,VWS V14.01,2013-01-04 19:02:00,
2013-01-04 12:07:00,50.2,11.8,31.01,WSW,240,4.9,4.9,21,0.00,,CLR,0.00,VWS V14.01,2013-01-04 19:07:00,
2013-01-04 12:12:00,50.7,12.2,31.01,SW,220,3.6,3.6,21,0.00,,CLR,0.00,VWS V14.01,2013-01-04 19:12:00,
2013-01-04 12:17:00,51.1,12.5,31.01,SSW,201,3.1,3.1,21,0.00,,CLR,0.00,VWS V14.01,2013-01-04 19:17:00,
2013-01-04 12:23:00,51.4,12.8,31.01,WSW,257,4.9,5.4,21,0.00,,CLR,0.00,VWS V14.01,2013-01-04 19:23:00,
2013-01-04 12:28:00,52.2,10.0,31.01,WSW,246,6.3,6.3,18,0.00,,CLR,0.00,VWS V14.01,2013-01-04 19:28:00,
2013-01-04 12:34:00,52.2,10.0,31.01,WSW,253,4.9,4.9,18,0.00,,CLR,0.00,VWS V14.01,2013-01-04 19:34:00,
2013-01-04 12:41:00,52.9,10.6,31.01,West,279,2.7,4.9,18,0.00,,CLR,0.00,VWS V14.01,2013-01-04 19:41:00,
2013-01-04 12:46:00,53.1,10.7,31.01,West,278,5.4,5.4,18,0.00,,CLR,0.00,VWS V14.01,2013-01-04 19:46:00,
2013-01-04 12:51:00,53.4,11.0,31.01,West,259,6.3,6.3,18,0.00,,CLR,0.00,VWS V14.01,2013-01-04 19:51:00,
2013-01-04 12:57:00,53.4,11.0,31.01,WSW,241,4.0,4.0,18,0.00,,CLR,0.00,VWS V14.01,2013-01-04 19:57:00,
2013-01-04 13:02:00,53.6,11.1,31.01,West,269,2.2,3.1,18,0.00,,CLR,0.00,VWS V14.01,2013-01-04 20:02:00,
2013-01-04 13:08:00,54.0,11.4,31.01,WSW,245,3.6,6.3,18,0.00,,CLR,0.00,VWS V14.01,2013-01-04 20:08:00,
2013-01-04 13:14:00,54.7,12.0,31.01,SW,227,2.7,3.6,18,0.00,,CLR,0.00,VWS V14.01,2013-01-04 20:14:00,
2013-01-04 13:19:00,55.4,11.3,31.01,West,281,3.6,3.6,17,0.00,,CLR,0.00,VWS V14.01,2013-01-04 20:19:00,
2013-01-04 13:25:00,55.8,11.6,31.01,SW,234,3.6,3.6,17,0.00,,CLR,0.00,VWS V14.01,2013-01-04 20:25:00,
2013-01-04 13:30:00,56.1,11.9,31.01,West,259,5.8,5.8,17,0.00,,CLR,0.00,VWS V14.01,2013-01-04 20:30:00,
2013-01-04 13:36:00,56.1,11.9,31.01,SW,236,5.8,5.8,17,0.00,,CLR,0.00,VWS V14.01,2013-01-04 20:36:00,
2013-01-04 13:41:00,56.3,12.1,31.01,SSW,211,3.6,3.6,17,0.00,,CLR,0.00,VWS V14.01,2013-01-04 20:41:00,
2013-01-04 13:47:00,56.7,12.4,31.01,West,273,3.1,4.0,17,0.00,,CLR,0.00,VWS V14.01,2013-01-04 20:47:00,
2013-01-04 13:52:00,56.7,12.4,31.01,WSW,248,5.4,5.4,17,0.00,,CLR,0.00,VWS V14.01,2013-01-04 20:52:00,
2013-01-04 13:57:00,56.7,12.4,31.01,WSW,253,5.8,5.8,17,0.00,,CLR,0.00,VWS V14.01,2013-01-04 20:57:00,
2013-01-04 14:03:00,56.7,12.4,31.01,West,274,4.0,4.0,17,0.00,,CLR,0.00,VWS V14.01,2013-01-04 21:03:00,
2013-01-04 14:08:00,57.2,12.8,31.01,SW,227,4.9,5.8,17,0.00,,CLR,0.00,VWS V14.01,2013-01-04 21:08:00,
2013-01-04 14:14:00,57.2,12.8,31.01,WSW,258,5.8,5.8,17,0.00,,CLR,0.00,VWS V14.01,2013-01-04 21:14:00,
2013-01-04 14:19:00,57.2,12.8,31.01,WSW,247,2.7,3.1,17,0.00,,CLR,0.00,VWS V14.01,2013-01-04 21:19:00,
2013-01-04 14:25:00,57.2,12.8,31.01,SW,224,4.0,5.8,17,0.00,,CLR,0.00,VWS V14.01,2013-01-04 21:25:00,
2013-01-04 14:30:00,57.0,12.7,31.01,West,265,8.1,8.1,17,0.00,,CLR,0.00,VWS V14.01,2013-01-04 21:30:00,
2013-01-04 14:36:00,57.4,12.9,31.01,West,270,5.8,5.8,17,0.00,,CLR,0.00,VWS V14.01,2013-01-04 21:36:00,
2013-01-04 14:42:00,57.7,13.2,31.01,WSW,244,6.3,6.3,17,0.00,,CLR,0.00,VWS V14.01,2013-01-04 21:42:00,
2013-01-04 14:47:00,58.3,13.7,31.01,WSW,246,3.1,3.1,17,0.00,,CLR,0.00,VWS V14.01,2013-01-04 21:47:00,
2013-01-04 14:54:00,58.8,14.1,31.01,SSW,202,5.4,5.4,17,0.00,,CLR,0.00,VWS V14.01,2013-01-04 21:54:00,
2013-01-04 14:59:00,59.2,14.4,31.01,SSW,212,3.1,5.4,17,0.00,,CLR,0.00,VWS V14.01,2013-01-04 21:59:00,
2013-01-04 15:04:00,59.4,14.6,31.01,SW,225,4.0,5.8,17,0.00,,CLR,0.00,VWS V14.01,2013-01-04 22:04:00,
2013-01-04 15:10:00,60.1,15.1,31.01,SSW,206,4.5,5.4,17,0.00,,CLR,0.00,VWS V14.01,2013-01-04 22:10:00,
2013-01-04 15:15:00,60.3,15.3,31.01,South,188,5.8,5.8,17,0.00,,CLR,0.00,VWS V14.01,2013-01-04 22:15:00,
2013-01-04 15:21:00,60.8,14.4,31.01,SSW,196,3.1,3.1,16,0.00,,CLR,0.00,VWS V14.01,2013-01-04 22:21:00,
2013-01-04 15:26:00,60.8,14.4,31.01,SSW,207,2.7,3.6,16,0.00,,CLR,0.00,VWS V14.01,2013-01-04 22:26:00,
2013-01-04 15:32:00,61.0,14.5,31.01,SW,220,0.0,3.6,16,0.00,,CLR,0.00,VWS V14.01,2013-01-04 22:32:00,
2013-01-04 15:38:00,61.5,14.9,31.01,SW,215,3.6,3.6,16,0.00,,CLR,0.00,VWS V14.01,2013-01-04 22:38:00,
2013-01-04 15:43:00,61.7,15.1,31.01,West,260,4.9,4.9,16,0.00,,CLR,0.00,VWS V14.01,2013-01-04 22:43:00,
2013-01-04 15:49:00,62.2,15.5,31.01,SW,224,2.7,4.0,16,0.00,,CLR,0.00,VWS V14.01,2013-01-04 22:49:00,
2013-01-04 15:55:00,62.6,15.8,31.01,SW,215,4.0,4.0,16,0.00,,CLR,0.00,VWS V14.01,2013-01-04 22:55:00,
2013-01-04 16:00:00,62.2,15.5,31.01,SW,215,2.7,4.0,16,0.00,,CLR,0.00,VWS V14.01,2013-01-04 23:00:00,
2013-01-04 16:05:00,62.2,15.5,31.01,SW,231,5.4,5.4,16,0.00,,CLR,0.00,VWS V14.01,2013-01-04 23:05:00,
2013-01-04 16:10:00,61.5,14.9,31.01,SSW,199,3.6,4.0,16,0.00,,CLR,0.00,VWS V14.01,2013-01-04 23:10:00,
2013-01-04 16:16:00,61.3,14.8,31.01,SW,221,2.7,5.4,16,0.00,,CLR,0.00,VWS V14.01,2013-01-04 23:16:00,
2013-01-04 16:21:00,61.3,14.8,31.01,WSW,245,4.0,5.4,16,0.00,,CLR,0.00,VWS V14.01,2013-01-04 23:21:00,
2013-01-04 16:27:00,61.3,14.8,17.72,SW,214,3.6,5.4,16,0.00,,CLR,0.00,VWS V14.01,2013-01-04 23:27:00,
2013-01-04 16:32:00,61.0,14.5,17.72,WSW,246,4.9,5.4,16,0.00,,CLR,0.00,VWS V14.01,2013-01-04 23:32:00,
2013-01-04 16:38:00,61.0,14.5,17.72,SW,220,4.0,4.0,16,0.00,,CLR,0.00,VWS V14.01,2013-01-04 23:38:00,
2013-01-04 16:43:00,61.0,14.5,17.72,SW,236,5.4,5.4,16,0.00,,CLR,0.00,VWS V14.01,2013-01-04 23:43:00,
2013-01-04 16:49:00,61.0,14.5,17.72,WSW,241,3.1,5.8,16,0.00,,CLR,0.00,VWS V14.01,2013-01-04 23:49:00,
2013-01-04 16:55:00,60.1,15.1,17.72,WSW,249,3.6,3.6,17,0.00,,CLR,0.00,VWS V14.01,2013-01-04 23:55:00,
2013-01-04 17:00:00,59.9,15.0,17.72,SW,230,5.4,5.4,17,0.00,,CLR,0.00,VWS V14.01,2013-01-05 00:00:00,
2013-01-04 17:05:00,59.5,14.7,17.72,SW,231,0.0,0.0,17,0.00,,CLR,0.00,VWS V14.01,2013-01-05 00:05:00,
2013-01-04 17:10:00,58.6,14.0,17.72,SW,223,2.7,3.6,17,0.00,,CLR,0.00,VWS V14.01,2013-01-05 00:10:00,
2013-01-04 17:17:00,57.2,12.8,17.72,SSW,205,4.9,5.4,17,0.00,,CLR,0.00,VWS V14.01,2013-01-05 00:17:00,
2013-01-04 17:23:00,56.7,12.4,17.72,SSW,205,2.2,2.2,17,0.00,,CLR,0.00,VWS V14.01,2013-01-05 00:23:00,
2013-01-04 17:28:00,55.9,11.8,17.72,SSW,205,3.1,3.1,17,0.00,,CLR,0.00,VWS V14.01,2013-01-05 00:28:00,
2013-01-04 17:34:00,55.8,11.6,17.72,SSW,206,3.1,3.1,17,0.00,,CLR,0.00,VWS V14.01,2013-01-05 00:34:00,
2013-01-04 17:39:00,55.2,12.5,17.72,SSW,206,0.0,2.7,18,0.00,,CLR,0.00,VWS V14.01,2013-01-05 00:39:00,
2013-01-04 17:44:00,54.3,11.7,17.72,SSW,206,0.0,0.0,18,0.00,,CLR,0.00,VWS V14.01,2013-01-05 00:44:00,
2013-01-04 17:50:00,54.1,11.6,17.72,SSW,206,0.0,0.0,18,0.00,,CLR,0.00,VWS V14.01,2013-01-05 00:50:00,
2013-01-04 17:56:00,53.2,10.9,17.72,SSW,206,0.0,0.0,18,0.00,,CLR,0.00,VWS V14.01,2013-01-05 00:56:00,
2013-01-04 18:01:00,52.5,10.2,17.72,SSW,206,0.0,0.0,18,0.00,,CLR,0.00,VWS V14.01,2013-01-05 01:01:00,
2013-01-04 18:06:00,52.0,9.8,17.72,SSW,206,0.0,0.0,18,0.00,,CLR,0.00,VWS V14.01,2013-01-05 01:06:00,
2013-01-04 18:12:00,51.3,10.4,17.72,SSW,206,0.0,0.0,19,0.00,,CLR,0.00,VWS V14.01,2013-01-05 01:12:00,
2013-01-04 18:17:00,51.1,10.3,17.72,SSW,206,0.0,0.0,19,0.00,,CLR,0.00,VWS V14.01,2013-01-05 01:17:00,
2013-01-04 18:23:00,50.2,9.5,17.72,SSW,206,0.0,0.0,19,0.00,,CLR,0.00,VWS V14.01,2013-01-05 01:23:00,
2013-01-04 18:28:00,49.6,9.1,17.72,SSW,206,0.0,0.0,19,0.00,,CLR,0.00,VWS V14.01,2013-01-05 01:28:00,
2013-01-04 18:34:00,49.1,8.6,17.72,SSW,206,0.0,0.0,19,0.00,,CLR,0.00,VWS V14.01,2013-01-05 01:34:00,
2013-01-04 18:39:00,48.6,8.2,17.72,SSW,206,0.0,0.0,19,0.00,,CLR,0.00,VWS V14.01,2013-01-05 01:39:00,
2013-01-04 18:45:00,48.6,8.2,17.72,SSW,206,0.0,0.0,19,0.00,,CLR,0.00,VWS V14.01,2013-01-05 01:45:00,
2013-01-04 18:50:00,47.5,7.3,17.72,SSW,206,0.0,0.0,19,0.00,,CLR,0.00,VWS V14.01,2013-01-05 01:50:00,
2013-01-04 18:56:00,47.1,7.0,17.72,SSW,209,4.9,4.9,19,0.00,,CLR,0.00,VWS V14.01,2013-01-05 01:56:00,
2013-01-04 19:02:00,46.9,6.8,17.72,North,7,5.4,5.4,19,0.00,,CLR,0.00,VWS V14.01,2013-01-05 02:02:00,
2013-01-04 19:08:00,46.6,6.5,17.72,North,6,4.0,4.0,19,0.00,,CLR,0.00,VWS V14.01,2013-01-05 02:08:00,
2013-01-04 19:13:00,46.6,6.5,17.72,North,5,5.8,6.3,19,0.00,,CLR,0.00,VWS V14.01,2013-01-05 02:13:00,
2013-01-04 19:19:00,46.0,7.2,17.72,North,8,4.9,4.9,20,0.00,,CLR,0.00,VWS V14.01,2013-01-05 02:19:00,
2013-01-04 19:24:00,46.0,7.2,17.72,North,11,4.9,5.4,20,0.00,,CLR,0.00,VWS V14.01,2013-01-05 02:24:00,
2013-01-04 19:30:00,46.0,7.2,17.72,North,11,4.5,4.9,20,0.00,,CLR,0.00,VWS V14.01,2013-01-05 02:30:00,
2013-01-04 19:35:00,45.9,7.1,17.72,North,11,4.9,4.9,20,0.00,,CLR,0.00,VWS V14.01,2013-01-05 02:35:00,
2013-01-04 19:41:00,45.5,6.8,17.72,North,11,4.9,4.9,20,0.00,,CLR,0.00,VWS V14.01,2013-01-05 02:41:00,
2013-01-04 19:47:00,45.3,6.6,17.72,NNE,12,4.0,4.9,20,0.00,,CLR,0.00,VWS V14.01,2013-01-05 02:47:00,
2013-01-04 19:52:00,45.1,6.5,17.72,North,11,4.9,5.4,20,0.00,,CLR,0.00,VWS V14.01,2013-01-05 02:52:00,
2013-01-04 19:57:00,44.8,6.2,30.03,NNE,12,5.4,5.4,20,0.00,,CLR,0.00,VWS V14.01,2013-01-05 02:57:00,
2013-01-04 20:02:00,44.6,6.0,30.03,North,10,4.9,5.4,20,0.00,,CLR,0.00,VWS V14.01,2013-01-05 03:02:00,
2013-01-04 20:08:00,44.6,6.0,30.03,North,11,5.4,5.4,20,0.00,,CLR,0.00,VWS V14.01,2013-01-05 03:08:00,
2013-01-04 20:13:00,44.2,5.7,30.03,NNE,14,4.9,5.4,20,0.00,,CLR,0.00,VWS V14.01,2013-01-05 03:13:00,
2013-01-04 20:19:00,44.4,5.9,30.03,NNE,15,4.0,4.9,20,0.00,,CLR,0.00,VWS V14.01,2013-01-05 03:19:00,
2013-01-04 20:24:00,45.3,6.6,31.01,NNE,15,2.2,2.2,20,0.00,,CLR,0.00,VWS V14.01,2013-01-05 03:24:00,
2013-01-04 20:30:00,45.3,6.6,31.01,NNE,15,0.0,0.0,20,0.00,,CLR,0.00,VWS V14.01,2013-01-05 03:30:00,
2013-01-04 20:36:00,45.1,6.5,31.01,NNE,15,0.0,0.0,20,0.00,,CLR,0.00,VWS V14.01,2013-01-05 03:36:00,
2013-01-04 20:41:00,44.8,6.2,31.01,NNE,15,0.0,0.0,20,0.00,,CLR,0.00,VWS V14.01,2013-01-05 03:41:00,
2013-01-04 20:47:00,43.5,5.1,31.01,NNE,15,0.0,0.0,20,0.00,,CLR,0.00,VWS V14.01,2013-01-05 03:47:00,
2013-01-04 20:53:00,43.0,4.7,31.01,NW,315,0.0,0.0,20,0.00,,CLR,0.00,VWS V14.01,2013-01-05 03:53:00,
2013-01-04 20:58:00,42.8,4.5,31.01,NW,305,3.6,3.6,20,0.00,,CLR,0.00,VWS V14.01,2013-01-05 03:58:00,
2013-01-04 21:04:00,42.6,5.4,31.01,NW,323,3.1,4.0,21,0.00,,CLR,0.00,VWS V14.01,2013-01-05 04:04:00,
2013-01-04 21:09:00,42.8,4.5,31.01,NW,323,3.1,3.1,20,0.00,,CLR,0.00,VWS V14.01,2013-01-05 04:09:00,
2013-01-04 21:15:00,43.2,4.8,29.21,NW,323,3.1,3.1,20,0.00,,CLR,0.00,VWS V14.01,2013-01-05 04:15:00,
2013-01-04 21:20:00,43.2,4.8,29.21,NW,324,4.5,4.5,20,0.00,,CLR,0.00,VWS V14.01,2013-01-05 04:20:00,
2013-01-04 21:25:00,43.0,4.7,29.21,North,357,5.4,5.4,20,0.00,,CLR,0.00,VWS V14.01,2013-01-05 04:25:00,
2013-01-04 21:30:00,42.4,5.3,29.21,North,357,4.9,4.9,21,0.00,,CLR,0.00,VWS V14.01,2013-01-05 04:30:00,
2013-01-04 21:36:00,42.3,5.1,29.21,North,0,4.9,4.9,21,0.00,,CLR,0.00,VWS V14.01,2013-01-05 04:36:00,
2013-01-04 21:41:00,42.3,5.1,29.21,North,0,4.9,5.4,21,0.00,,CLR,0.00,VWS V14.01,2013-01-05 04:41:00,
2013-01-04 21:46:00,41.9,4.8,29.23,North,357,5.4,5.4,21,0.00,,CLR,0.00,VWS V14.01,2013-01-05 04:46:00,
2013-01-04 21:52:00,41.7,4.7,29.23,North,357,5.4,5.4,21,0.00,,CLR,0.00,VWS V14.01,2013-01-05 04:52:00,
2013-01-04 21:58:00,41.5,4.5,29.23,North,353,5.4,5.4,21,0.00,,CLR,0.00,VWS V14.01,2013-01-05 04:58:00,
2013-01-04 22:01:00,41.4,4.4,29.23,North,357,4.9,5.4,21,0.00,,CLR,0.00,VWS V14.01,2013-01-05 05:01:00,
2013-01-04 22:02:00,41.4,4.4,29.23,North,357,5.4,5.4,21,0.00,,CLR,0.00,VWS V14.01,2013-01-05 05:02:00,
2013-01-04 22:07:00,41.2,4.2,29.23,North,357,4.0,4.0,21,0.00,,CLR,0.00,VWS V14.01,2013-01-05 05:07:00,
2013-01-04 22:08:00,41.2,4.2,29.23,North,357,4.0,4.0,21,0.00,,CLR,0.00,VWS V14.01,2013-01-05 05:08:00,
2013-01-04 22:11:00,41.2,4.2,29.23,North,357,3.6,3.6,21,0.00,,CLR,0.00,VWS V14.01,2013-01-05 05:11:00,
2013-01-04 22:16:00,41.0,4.1,29.23,North,357,3.6,3.6,21,0.00,,CLR,0.00,VWS V14.01,2013-01-05 05:16:00,
2013-01-04 22:22:00,41.0,4.1,29.23,North,357,3.1,3.1,21,0.00,,CLR,0.00,VWS V14.01,2013-01-05 05:22:00,
2013-01-04 22:27:00,41.0,4.1,29.23,NW,320,4.0,4.0,21,0.00,,CLR,0.00,VWS V14.01,2013-01-05 05:27:00,
2013-01-04 22:32:00,41.2,4.2,29.23,NW,321,4.0,4.0,21,0.00,,CLR,0.00,VWS V14.01,2013-01-05 05:32:00,
2013-01-04 22:38:00,41.2,4.2,29.23,NNW,331,3.6,4.5,21,0.00,,CLR,0.00,VWS V14.01,2013-01-05 05:38:00,
2013-01-04 22:44:00,41.2,4.2,29.23,NW,321,4.0,4.0,21,0.00,,CLR,0.00,VWS V14.01,2013-01-05 05:44:00,
2013-01-04 22:50:00,41.2,4.2,29.23,NNW,331,4.0,5.4,21,0.00,,CLR,0.00,VWS V14.01,2013-01-05 05:50:00,
2013-01-04 22:56:00,41.2,4.2,29.23,NW,326,3.1,4.0,21,0.00,,CLR,0.00,VWS V14.01,2013-01-05 05:56:00,
2013-01-04 23:01:00,41.2,4.2,29.23,NW,326,3.1,3.6,21,0.00,,CLR,0.00,VWS V14.01,2013-01-05 06:01:00,
2013-01-04 23:07:00,41.2,4.2,29.23,NW,326,2.7,2.7,21,0.00,,CLR,0.00,VWS V14.01,2013-01-05 06:07:00,
2013-01-04 23:12:00,40.6,3.8,29.23,NW,326,4.0,4.0,21,0.00,,CLR,0.00,VWS V14.01,2013-01-05 06:12:00,
2013-01-04 23:17:00,40.1,3.3,29.23,NW,326,4.0,4.0,21,0.00,,CLR,0.00,VWS V14.01,2013-01-05 06:17:00,
2013-01-04 23:22:00,39.9,3.2,29.23,NNW,327,4.0,4.0,21,0.00,,CLR,0.00,VWS V14.01,2013-01-05 06:22:00,
2013-01-04 23:28:00,39.9,3.2,29.23,North,357,4.0,4.0,21,0.00,,CLR,0.00,VWS V14.01,2013-01-05 06:28:00,
2013-01-04 23:33:00,39.2,4.5,29.23,North,357,3.6,4.0,23,0.00,,CLR,0.00,VWS V14.01,2013-01-05 06:33:00,
2013-01-04 23:39:00,39.0,5.3,29.23,North,357,4.5,4.9,24,0.00,,CLR,0.00,VWS V14.01,2013-01-05 06:39:00,
2013-01-04 23:45:00,38.8,5.2,29.23,North,357,4.0,4.0,24,0.00,,CLR,0.00,VWS V14.01,2013-01-05 06:45:00,
2013-01-04 23:50:00,38.7,5.0,29.23,North,357,4.0,4.0,24,0.00,,CLR,0.00,VWS V14.01,2013-01-05 06:50:00,
2013-01-04 23:56:00,38.3,4.7,29.23,North,6,5.4,5.4,24,0.00,,CLR,0.00,VWS V14.01,2013-01-05 06:56:00,